Regional Weather Roundup
Issued by NWS

Home | Current Version | Previous Version | Graphics & Text | Print | Product List | Glossary On
Versions: 1 2 3 4 5 6 7 8 9 10 11 12 13 14 15 16 17 18 19 20 21 22 23 24 25 26 27 28 29 30 31 32 33 34 35 36 37 38 39 40 41 42 43 44 45 46 47 48 49 50
000
ASUS43 KFSD 191302
RWRSD

WEATHER ROUNDUP FOR SOUTH DAKOTA
NATIONAL WEATHER SERVICE SIOUX FALLS SD
700 AM CST SUN FEB 19 2017

NOTE: "FAIR" INDICATES FEW OR NO CLOUDS BELOW 12,000 FEET WITH NO
SIGNIFICANT WEATHER AND/OR OBSTRUCTIONS TO VISIBILITY.


SDZ001>005-009-010-012>017-191400-
NORTHWEST AND NORTH CENTRAL SOUTH DAKOTA

CITY           SKY/WX    TMP DP  RH WIND       PRES   REMARKS
BUFFALO          N/A     38  32  79 S9        29.45S
FAITH            N/A     38  33  82 SE20      29.53F
MOBRIDGE       CLOUDY    38  31  76 SE9       29.58F
$$

SDZ012>016-024>037-041>051-057-063-072>074-191400-
SOUTHWEST AND SOUTH CENTRAL SOUTH DAKOTA

CITY           SKY/WX    TMP DP  RH WIND       PRES   REMARKS
RAPID CTY ARPT PTCLDY    38  29  70 E5        29.56R
PIERRE         CLOUDY    39  32  76 E9        29.59F
CUSTER         CLOUDY    44  27  51 W10       29.61S
ELLSWORTH AFB  PTCLDY    35  30  82 W5        29.54F
PHILIP         PTCLDY    36  32  85 E3        29.57S
PINE RIDGE     CLOUDY    41  33  73 SW9       29.60R
SPEARFISH      FAIR      41  30  65 SE7       29.55F
WINNER         FAIR      48  36  63 S10       29.63F
$$

SDZ004>011-016>023-039-040-191400-
NORTHEAST SOUTH DAKOTA

CITY           SKY/WX    TMP DP  RH WIND       PRES   REMARKS
ABERDEEN       CLOUDY    41  33  73 S10       29.71R
WATERTOWN      PTCLDY    40  35  83 SE16      29.76F
BROOKINGS      CLOUDY    38  34  85 SE14      29.78F
SISSETON         N/A     35  34  96 S7        29.77F WCI  29
$$

SDZ017-020-022-023-036>040-048>070-191400-
SOUTHEAST SOUTH DAKOTA

CITY           SKY/WX    TMP DP  RH WIND       PRES   REMARKS
SIOUX FALLS    CLOUDY    40  35  83 SE8       29.80F
HURON          PTCLDY    38  34  85 SE10      29.71F
CHAMBERLAIN    PTCLDY    39  35  87 E8        29.65F
MITCHELL       CLOUDY    39  34  82 SE12      29.73F
YANKTON        CLOUDY    36  30  80 E8        29.78S
$$

ABBREVIATIONS USED IN REMARKS
   TC - TEMPERATURE IN CELSIUS
  WCI - WIND CHILL INDEX
   HX - HEAT INDEX
  VSB - VISIBILITY





USA.gov is the U.S. government's official web portal to all federal, state and local government web resources and services.